TimeCST,TemperatureF,Dew PointF,Humidity,Sea Level PressureIn,VisibilityMPH,Wind Direction,Wind SpeedMPH,Gust SpeedMPH,PrecipitationIn,Events,Conditions,WindDirDegrees,DateUTC
12:00 AM,71,61,62,29.85,12,East,6.9,,,,,100,2013-04-25 06:00:00
12:00 AM,71.6,59.0,64,30.03,-9999.0,East,6.9,-,N/A,,Clear,100,2013-04-25 06:00:00
1:00 AM,69.8,60.8,73,30.01,-9999.0,East,6.9,-,N/A,,Clear,80,2013-04-25 07:00:00
2:00 AM,71.6,59.0,64,30.00,-9999.0,ESE,11.5,23.0,N/A,,Clear,110,2013-04-25 08:00:00
3:00 AM,71,60,60,29.80,12,ESE,11.5,,,,,120,2013-04-25 09:00:00
3:00 AM,69.8,60.8,73,30.00,-9999.0,ESE,11.5,-,N/A,,Clear,120,2013-04-25 09:00:00
4:00 AM,69.8,59.0,68,30.00,-9999.0,East,9.2,-,N/A,,Clear,100,2013-04-25 10:00:00
5:00 AM,69.8,59.0,68,30.01,-9999.0,East,8.1,-,N/A,,Clear,100,2013-04-25 11:00:00
6:00 AM,70,57,53,,12,East,11.5,,,,,100,2013-04-25 12:00:00
6:00 AM,69.8,57.2,64,30.03,6.2,East,11.5,-,N/A,,Partly Cloudy,100,2013-04-25 12:00:00
7:00 AM,71.6,57.2,60,30.05,6.2,ESE,12.7,24.2,N/A,,Partly Cloudy,110,2013-04-25 13:00:00
8:00 AM,77.0,55.4,47,30.06,-9999.0,East,12.7,24.2,N/A,,Clear,100,2013-04-25 14:00:00
9:00 AM,79,54,31,29.89,12,East,28.8,,,,,90,2013-04-25 15:00:00
9:00 AM,78.8,53.6,42,30.06,-9999.0,East,17.3,28.8,N/A,,Clear,90,2013-04-25 15:00:00
10:00 AM,80.6,57.2,45,30.06,6.2,East,15.0,27.6,N/A,,Partly Cloudy,100,2013-04-25 16:00:00
11:00 AM,82.4,57.2,42,30.05,6.2,ENE,13.8,25.3,N/A,,Scattered Clouds,70,2013-04-25 17:00:00
12:00 PM,83,56,30,29.85,12,ENE,23.0,,,,Scattered Clouds,70,2013-04-25 18:00:00
12:00 PM,84.2,57.2,40,30.04,6.2,ENE,11.5,23.0,N/A,,Scattered Clouds,70,2013-04-25 18:00:00
1:00 PM,84.2,55.4,37,30.00,6.2,East,10.4,-,N/A,,Scattered Clouds,80,2013-04-25 19:00:00
2:00 PM,86.0,57.2,37,29.97,6.2,ENE,15.0,28.8,N/A,,Scattered Clouds,70,2013-04-25 20:00:00
3:00 PM,82,57,31,29.80,12,ENE,16.1,,,,Partly Cloudy,60,2013-04-25 21:00:00
3:00 PM,82.4,57.2,42,29.97,6.2,ENE,16.1,-,N/A,,Scattered Clouds,60,2013-04-25 21:00:00
4:00 PM,80.6,57.2,45,29.99,6.2,ENE,15.0,-,N/A,,Scattered Clouds,70,2013-04-25 22:00:00
5:00 PM,77.0,59.0,54,30.00,6.2,East,9.2,-,N/A,,Scattered Clouds,90,2013-04-25 23:00:00
6:00 PM,75,58,46,29.83,12,East,11.5,,,,Partly Cloudy,100,2013-04-26 00:00:00
6:00 PM,75.2,59.0,57,30.01,6.2,East,11.5,-,N/A,,Scattered Clouds,100,2013-04-26 00:00:00
7:00 PM,73.4,59.0,61,30.05,6.2,East,10.4,-,N/A,,Partly Cloudy,100,2013-04-26 01:00:00
8:00 PM,71.6,60.8,69,30.06,6.2,East,9.2,-,N/A,,Partly Cloudy,90,2013-04-26 02:00:00
9:00 PM,72,59,55,29.87,12,East,13.8,,,,Scattered Clouds,100,2013-04-26 03:00:00
9:00 PM,71.6,59.0,64,30.08,6.2,East,13.8,-,N/A,,Partly Cloudy,100,2013-04-26 03:00:00
10:00 PM,71.6,60.8,69,30.09,6.2,ESE,9.2,-,N/A,,Partly Cloudy,110,2013-04-26 04:00:00
11:00 PM,71.6,59.0,64,30.07,6.2,ESE,13.8,-,N/A,,Partly Cloudy,110,2013-04-26 05:00:00